EW8324 Weather Reports


Display with metric or nautical units.
time (UTC)temp
F
wind
direction
speed
MPH
gust
MPH
rain 1hr
in
rain 24hr
in
rain mn
in
humidity
%
barometer
mb
20260510144659 80 245 0.0 0.0 0.00 0.00 0.00 83 1010.6
20260510144155 80 195 0.0 0.0 0.00 0.00 0.00 83 1010.6
20260510143657 80 206 0.0 0.0 0.00 0.00 0.00 83 1010.5
20260510143156 80 152 0.0 0.0 0.00 0.00 0.00 83 1010.4
20260510142659 80 157 0.0 0.0 0.00 0.00 0.00 83 1010.5
20260510142156 80 0 0.0 0.0 0.00 0.00 0.00 82 1010.4
20260510141652 79 285 0.0 0.0 0.00 0.00 0.00 83 1010.4
20260510141150 78 234 0.0 0.0 0.00 0.00 0.00 82 1010.5
20260510140917 78 148 0.0 0.0 0.00 0.00 0.00 80 1010.4
20260510140801 78 148 0.0 0.0 0.00 0.00 0.00 80 1010.4
20260510140156 78 326 0.0 0.0 0.00 0.00 0.00 75 1010.5
20260510135658 77 319 0.0 0.0 0.00 0.00 0.00 76 1010.4
20260510135456 77 213 0.0 0.0 0.00 0.00 0.00 70 1010.4
20260510135155 77 283 0.0 0.0 0.00 0.00 0.00 72 1010.4
20260510134942 76 213 0.0 0.0 0.00 0.00 0.00 69 1010.4
20260510134900 77 213 0.0 0.0 0.00 0.00 0.00 70 1010.4
20260510134302 76 213 0.0 0.0 0.00 0.00 0.00 69 1010.4
20260510133922 76 183 0.0 0.0 0.00 0.00 0.00 67 1010.3
20260510133807 76 183 0.0 0.0 0.00 0.00 0.00 67 1010.3
20260510133155 76 185 0.0 0.0 0.00 0.00 0.00 66 1010.4
20260510132700 76 175 0.0 0.0 0.00 0.00 0.00 64 1010.2
20260510132155 76 175 0.0 0.0 0.00 0.00 0.00 63 1010.0
20260510131657 75 175 0.0 0.0 0.00 0.00 0.00 63 1009.9
20260510131154 75 175 0.0 0.0 0.00 0.00 0.00 62 1009.8
20260510130656 75 179 0.0 0.0 0.00 0.00 0.00 61 1009.7
20260510130154 75 179 0.0 0.0 0.00 0.00 0.00 61 1009.6
20260510125657 75 179 0.0 0.0 0.00 0.00 0.00 61 1009.5
20260510125153 75 176 0.0 0.0 0.00 0.00 0.00 60 1009.4
20260510124656 74 176 0.0 0.0 0.00 0.00 0.00 60 1009.4
20260510124152 74 176 0.0 0.0 0.00 0.00 0.00 59 1009.4
20260510123657 74 176 0.0 0.0 0.00 0.00 0.00 60 1009.3
20260510123155 74 176 0.0 0.0 0.00 0.00 0.00 60 1009.2
20260510122916 74 176 0.0 0.0 0.00 0.00 0.00 59 1009.0
20260510122802 74 176 0.0 0.0 0.00 0.00 0.00 59 1009.0
20260510122152 74 176 0.0 0.0 0.00 0.00 0.00 60 1009.0
20260510121654 74 168 0.0 0.0 0.00 0.00 0.00 60 1009.0
20260510121152 74 168 0.0 0.0 0.00 0.00 0.00 60 1008.9
20260510120654 74 168 0.0 0.0 0.00 0.00 0.00 60 1008.8
20260510120153 74 168 0.0 0.0 0.00 0.00 0.00 60 1008.7
20260510115656 74 168 0.0 0.0 0.00 0.00 0.00 60 1008.6
20260510115420 74 168 0.0 0.0 0.00 0.00 0.00 59 1008.5
20260510115306 74 168 0.0 0.0 0.00 0.00 0.00 59 1008.5
20260510114654 74 168 0.0 0.0 0.00 0.00 0.00 60 1008.4
20260510114153 74 168 0.0 0.0 0.00 0.00 0.00 60 1008.3
20260510113653 74 168 0.0 0.0 0.00 0.00 0.00 61 1008.1
20260510113152 74 168 0.0 0.0 0.00 0.00 0.00 61 1007.9
20260510112653 73 168 0.0 0.0 0.00 0.00 0.00 61 1007.8
20260510112151 73 168 0.0 0.0 0.00 0.00 0.00 61 1007.6
20260510111652 73 168 0.0 0.0 0.00 0.00 0.00 60 1007.4
20260510111152 73 168 0.0 0.0 0.00 0.00 0.00 60 1007.3
20260510110654 73 168 0.0 0.0 0.00 0.00 0.00 60 1007.2
20260510110152 73 168 0.0 0.0 0.00 0.00 0.00 60 1007.1
20260510105653 73 168 0.0 0.0 0.00 0.00 0.00 60 1007.1
20260510105152 73 168 0.0 0.0 0.00 0.00 0.00 60 1007.0
20260510104651 73 168 0.0 0.0 0.00 0.00 0.00 60 1006.9
20260510104152 73 168 0.0 0.0 0.00 0.00 0.00 60 1006.8
20260510103652 73 168 0.0 0.0 0.00 0.00 0.00 60 1006.7
20260510103154 73 168 0.0 0.0 0.00 0.00 0.00 60 1006.8
20260510102653 73 168 0.0 0.0 0.00 0.00 0.00 61 1006.8
20260510102153 73 168 0.0 0.0 0.00 0.00 0.00 61 1006.7
20260510101653 73 168 0.0 0.0 0.00 0.00 0.00 63 1006.7
20260510101151 73 168 0.0 0.0 0.00 0.00 0.00 64 1006.7
20260510101130 73 168 0.0 0.0 0.00 0.00 0.00 65 1006.7
20260510100753 73 168 0.0 0.0 0.00 0.00 0.00 64 1006.8
20260510100257 73 168 0.0 0.0 0.00 0.00 0.00 65 1006.7
20260510095917 72 168 0.0 0.0 0.00 0.00 0.00 66 1006.7
20260510095800 72 168 0.0 0.0 0.00 0.00 0.00 66 1006.7
20260510095151 72 168 0.0 0.0 0.00 0.00 0.00 67 1006.6
20260510094652 72 168 0.0 0.0 0.00 0.00 0.00 68 1006.6
20260510094149 72 168 0.0 0.0 0.00 0.00 0.00 68 1006.6
20260510093652 72 168 0.0 0.0 0.00 0.00 0.00 71 1006.6
20260510093150 72 168 0.0 0.0 0.00 0.00 0.00 71 1006.5
20260510092652 72 168 0.0 0.0 0.00 0.00 0.00 71 1006.4
20260510092411 72 168 0.0 0.0 0.00 0.00 0.00 72 1006.4
20260510092257 72 168 0.0 0.0 0.00 0.00 0.00 72 1006.4
20260510091651 72 168 0.0 0.0 0.00 0.00 0.00 73 1006.3
20260510091150 72 168 0.0 0.0 0.00 0.00 0.00 74 1006.3
20260510090651 72 168 0.0 0.0 0.00 0.00 0.00 73 1006.3
20260510090148 72 168 0.0 0.0 0.00 0.00 0.00 74 1006.2
20260510085650 72 168 0.0 0.0 0.00 0.00 0.00 75 1006.3
20260510085148 72 168 0.0 0.0 0.00 0.00 0.00 76 1006.4
20260510084650 72 168 0.0 0.0 0.00 0.00 0.00 76 1006.4
20260510084147 72 168 0.0 0.0 0.00 0.00 0.00 75 1006.4
20260510083649 72 168 0.0 0.0 0.00 0.00 0.00 75 1006.5
20260510083149 73 168 0.0 0.0 0.00 0.00 0.00 75 1006.4
20260510082648 73 168 0.0 0.0 0.00 0.00 0.00 75 1006.5
20260510082412 73 168 0.0 0.0 0.00 0.00 0.00 75 1006.3
20260510082255 73 168 0.0 0.0 0.00 0.00 0.00 75 1006.3
20260510081649 73 168 0.0 0.0 0.00 0.00 0.00 74 1006.4
20260510081147 73 168 0.0 0.0 0.00 0.00 0.00 74 1006.3
20260510080648 73 168 0.0 0.0 0.00 0.00 0.00 75 1006.4
20260510080147 73 168 0.0 0.0 0.00 0.00 0.00 75 1006.4
20260510075648 73 168 0.0 0.0 0.00 0.00 0.00 75 1006.4
20260510075148 73 168 0.0 0.0 0.00 0.00 0.00 76 1006.4
20260510074649 73 168 0.0 0.0 0.00 0.00 0.00 77 1006.4
20260510074147 73 168 0.0 0.0 0.00 0.00 0.00 77 1006.5
20260510073648 73 168 0.0 0.0 0.00 0.00 0.00 79 1006.4
20260510073148 73 168 0.0 0.0 0.00 0.00 0.00 80 1006.6
20260510072645 73 168 0.0 0.0 0.00 0.00 0.00 80 1006.6
20260510072146 73 168 0.0 0.0 0.00 0.00 0.00 80 1006.7
20260510071905 73 168 0.0 0.0 0.00 0.00 0.00 80 1006.7
20260510071755 73 168 0.0 0.0 0.00 0.00 0.00 80 1006.7
20260510071146 73 168 0.0 0.0 0.00 0.00 0.00 80 1006.7
20260510070918 73 168 0.0 0.0 0.00 0.00 0.00 80 1006.8
20260510070754 73 168 0.0 0.0 0.00 0.00 0.00 80 1006.8
20260510070147 73 168 0.0 0.0 0.00 0.00 0.00 80 1006.7
20260510065646 73 168 0.0 0.0 0.00 0.00 0.00 80 1006.7
20260510065147 74 168 0.0 0.0 0.00 0.00 0.00 80 1006.6
20260510064646 74 168 0.0 0.0 0.00 0.00 0.00 81 1006.6
20260510064147 74 168 0.0 0.0 0.00 0.00 0.00 81 1006.6
20260510063651 74 168 0.0 0.0 0.00 0.00 0.00 81 1006.7
20260510063145 74 168 0.0 0.0 0.00 0.00 0.00 82 1006.8
20260510062917 74 168 0.0 0.0 0.00 0.00 0.00 82 1006.7
20260510062754 74 168 0.0 0.0 0.00 0.00 0.00 82 1006.7
20260510062145 74 168 0.0 0.0 0.00 0.00 0.00 82 1006.7
20260510061646 74 168 0.0 0.0 0.00 0.00 0.00 81 1006.8
20260510061145 74 168 0.0 0.0 0.00 0.00 0.00 82 1006.8
20260510060645 74 168 0.0 0.0 0.00 0.00 0.00 82 1006.8
20260510060404 74 168 0.0 0.0 0.00 0.00 0.00 81 1006.8
20260510060253 74 168 0.0 0.0 0.00 0.00 0.00 81 1006.8
20260510055647 74 168 0.0 0.0 0.00 0.00 0.00 82 1006.8
20260510055147 74 168 0.0 0.0 0.00 0.00 0.00 82 1006.8
20260510054646 74 168 0.0 0.0 0.00 0.00 0.00 82 1006.8
20260510054145 74 168 0.0 0.0 0.00 0.00 0.00 83 1006.8
20260510053646 74 168 0.0 0.0 0.00 0.00 0.00 83 1006.9
20260510053412 74 168 0.0 0.0 0.00 0.00 0.00 83 1006.8
20260510053252 74 168 0.0 0.0 0.00 0.00 0.00 83 1006.8
20260510052646 74 168 0.0 0.0 0.00 0.00 0.00 83 1006.8
20260510052406 74 168 0.0 0.0 0.00 0.00 0.00 83 1007.0
20260510052252 74 168 0.0 0.0 0.00 0.00 0.00 83 1007.0
20260510051646 74 168 0.0 0.0 0.00 0.00 0.00 84 1006.9
20260510051411 74 168 0.0 0.0 0.00 0.00 0.00 84 1007.0
20260510051252 74 168 0.0 0.0 0.00 0.00 0.00 84 1007.0
20260510050646 74 168 0.0 0.0 0.00 0.00 0.00 85 1007.0
20260510050143 74 168 0.0 0.0 0.00 0.00 0.00 85 1006.8
20260510045646 74 166 0.0 0.0 0.00 0.00 0.00 85 1006.8
20260510045144 74 166 0.0 0.0 0.00 0.00 0.00 85 1006.9
20260510044646 74 166 0.0 0.0 0.00 0.00 0.00 85 1007.0
20260510044144 74 166 0.0 0.0 0.00 0.00 0.00 85 1007.1
20260510043909 74 166 0.0 0.0 0.00 0.00 0.00 85 1007.1
20260510043754 74 166 0.0 0.0 0.00 0.00 0.00 85 1007.1
20260510043417 74 166 0.0 0.0 0.00 0.00 0.00 85 1007.3
20260510043251 74 166 0.0 0.0 0.00 0.00 0.00 85 1007.3
20260510042643 74 166 0.0 0.0 0.00 0.00 0.00 84 1007.3
20260510042142 74 166 0.0 0.0 0.00 0.00 0.00 84 1007.3
20260510041646 74 264 0.0 0.0 0.00 0.00 0.00 84 1007.3
20260510041142 74 248 0.0 0.0 0.00 0.00 0.00 84 1007.2
20260510040644 74 248 0.0 0.0 0.00 0.00 0.00 83 1007.3
20260510040143 74 248 0.0 0.0 0.00 0.00 0.00 83 1007.3
20260510035905 75 248 0.0 0.0 0.00 0.00 0.00 82 1007.3
20260510035753 75 248 0.0 0.0 0.00 0.00 0.00 82 1007.3
20260510035143 75 248 0.0 0.0 0.00 0.00 0.00 82 1007.4
20260510034642 75 248 0.0 0.0 0.00 0.00 0.00 81 1007.4
20260510034143 75 248 0.0 0.0 0.00 0.00 0.00 81 1007.2
20260510033656 76 248 0.0 0.0 0.00 0.00 0.00 79 1007.2
20260510033142 76 248 0.0 0.0 0.00 0.00 0.00 79 1007.2
20260510032642 76 142 0.0 0.0 0.00 0.00 0.00 77 1007.1
20260510032140 76 138 0.0 0.0 0.00 0.00 0.00 76 1007.0
20260510031642 76 173 0.0 1.0 0.00 0.00 0.00 75 1007.1
20260510031407 76 171 0.0 2.0 0.00 0.00 0.00 74 1007.4
20260510031250 76 171 0.0 2.0 0.00 0.00 0.00 74 1007.4
20260510030643 76 176 0.0 2.0 0.00 0.00 0.00 74 1007.6
20260510030141 76 199 0.0 2.0 0.00 0.00 0.00 74 1007.7
20260510025911 77 193 0.0 2.0 0.00 0.00 0.00 73 1007.6
20260510025751 77 193 0.0 2.0 0.00 0.00 0.00 73 1007.6
20260510025141 77 245 0.0 0.0 0.00 0.00 0.00 73 1007.4
20260510024641 77 0 0.0 5.0 0.00 0.00 0.00 73 1007.2
20260510024141 78 144 0.0 7.0 0.00 0.00 0.00 73 1007.1
20260510023910 78 190 2.0 7.0 0.00 0.00 0.00 74 1007.0
20260510023752 78 190 2.0 7.0 0.00 0.00 0.00 74 1007.0
20260510023632 79 83 0.0 5.0 0.00 0.00 0.00 80 1006.8
20260510023250 79 83 0.0 5.0 0.00 0.00 0.00 80 1006.8
20260510022641 80 154 0.0 5.0 0.00 0.00 0.00 83 1006.6
20260510022358 80 151 0.0 0.0 0.00 0.00 0.00 82 1006.3
20260510022247 80 151 0.0 0.0 0.00 0.00 0.00 82 1006.3
20260510021640 79 157 0.0 0.0 0.00 0.00 0.00 80 1006.2
20260510021403 79 337 0.0 0.0 0.00 0.00 0.00 78 1005.9
20260510021248 79 337 0.0 0.0 0.00 0.00 0.00 78 1005.9
20260510020640 79 265 0.0 0.0 0.00 0.00 0.00 77 1005.6
20260510020139 80 266 0.0 0.0 0.00 0.00 0.00 76 1005.4
20260510015641 80 266 0.0 0.0 0.00 0.00 0.00 75 1005.3
20260510015139 80 266 0.0 0.0 0.00 0.00 0.00 74 1005.1
20260510014640 80 266 0.0 0.0 0.00 0.00 0.00 73 1005.0
20260510014618 81 266 0.0 0.0 0.00 0.00 0.00 71 1004.8
20260510014247 81 266 0.0 0.0 0.00 0.00 0.00 71 1004.8
20260510013641 81 266 0.0 0.0 0.00 0.00 0.00 70 1004.9
20260510013138 82 266 0.0 0.0 0.00 0.00 0.00 69 1004.9
20260510012643 83 266 0.0 0.0 0.00 0.00 0.00 67 1004.7
20260510012137 84 266 0.0 0.0 0.00 0.00 0.00 66 1004.8
20260510011641 84 217 0.0 0.0 0.00 0.00 0.00 66 1004.7
20260510011139 84 217 0.0 0.0 0.00 0.00 0.00 64 1004.7
20260510010641 85 251 0.0 0.0 0.00 0.00 0.00 61 1004.7
20260510010138 85 161 0.0 0.0 0.00 0.00 0.00 60 1004.3
20260510005639 85 161 0.0 0.0 0.00 0.00 0.00 60 1004.3
20260510005137 85 209 0.0 0.0 0.00 0.00 0.00 64 1004.3
20260510004640 85 209 0.0 0.0 0.00 0.00 0.00 65 1003.9
20260510004138 86 93 0.0 0.0 0.00 0.00 0.00 70 1004.1
20260510003638 86 93 0.0 0.0 0.00 0.00 0.00 69 1003.8
20260510003139 86 93 0.0 0.0 0.00 0.00 0.00 68 1003.7
20260510002639 86 93 0.0 0.0 0.00 0.00 0.00 67 1003.8
20260510002138 87 93 0.0 0.0 0.00 0.00 0.00 68 1003.8
20260510001639 87 93 0.0 0.0 0.00 0.00 0.00 67 1003.7
20260510001137 87 93 0.0 0.0 0.00 0.00 0.00 67 1003.7
20260510000638 87 93 0.0 0.0 0.00 0.00 0.00 66 1003.7
20260510000132 87 93 0.0 0.0 0.00 0.00 0.00 66 1003.6
20260509235638 87 92 0.0 0.0 0.00 0.00 0.00 65 1003.5
20260509235136 87 190 0.0 0.0 0.00 0.00 0.00 65 1003.5
20260509234639 87 190 0.0 0.0 0.00 0.00 0.00 66 1003.5
20260509234136 87 190 0.0 0.0 0.00 0.00 0.00 66 1003.3
20260509233637 87 190 0.0 0.0 0.00 0.00 0.00 65 1003.5
20260509233135 87 190 0.0 0.0 0.00 0.00 0.00 65 1003.5
20260509232636 88 190 0.0 0.0 0.00 0.00 0.00 64 1003.5
20260509232135 88 190 0.0 0.0 0.00 0.00 0.00 65 1003.4
20260509231637 88 190 0.0 0.0 0.00 0.00 0.00 64 1003.4
20260509231359 88 190 0.0 0.0 0.00 0.00 0.00 65 1003.6
20260509231244 88 190 0.0 0.0 0.00 0.00 0.00 65 1003.6
20260509230640 88 190 0.0 0.0 0.00 0.00 0.00 63 1003.5
20260509230135 88 190 0.0 0.0 0.00 0.00 0.00 63 1003.3
20260509225637 88 190 0.0 0.0 0.00 0.00 0.00 62 1003.2
20260509225359 89 190 0.0 0.0 0.00 0.00 0.00 61 1003.2
20260509225244 89 190 0.0 0.0 0.00 0.00 0.00 61 1003.2
20260509224637 89 190 0.0 0.0 0.00 0.00 0.00 61 1003.4
20260509224135 89 190 0.0 0.0 0.00 0.00 0.00 61 1003.3
20260509223639 89 189 0.0 0.0 0.00 0.00 0.00 64 1003.3
20260509223134 89 183 0.0 0.0 0.00 0.00 0.00 64 1003.2
20260509222636 89 183 0.0 0.0 0.00 0.00 0.00 63 1003.2
20260509222134 89 183 0.0 0.0 0.00 0.00 0.00 62 1003.2
20260509221639 89 183 0.0 0.0 0.00 0.00 0.00 63 1003.1
20260509221135 89 183 0.0 0.0 0.00 0.00 0.00 63 1003.1
20260509220650 89 207 0.0 0.0 0.00 0.00 0.00 62 1003.2
20260509220134 89 207 0.0 0.0 0.00 0.00 0.00 64 1003.2
20260509215637 89 207 0.0 0.0 0.00 0.00 0.00 65 1003.1
20260509215135 89 144 0.0 0.0 0.00 0.00 0.00 68 1003.1
20260509214636 88 144 0.0 0.0 0.00 0.00 0.00 64 1003.2
20260509214133 88 144 0.0 0.0 0.00 0.00 0.00 63 1003.2
20260509213636 88 142 0.0 0.0 0.00 0.00 0.00 64 1003.2
20260509213359 87 141 0.0 0.0 0.00 0.00 0.00 66 1003.2
20260509213241 87 141 0.0 0.0 0.00 0.00 0.00 66 1003.2
20260509212634 87 145 0.0 0.0 0.00 0.00 0.00 67 1003.1
20260509212146 87 145 0.0 0.0 0.00 0.00 0.00 68 1003.2
20260509211633 87 145 0.0 0.0 0.00 0.00 0.00 67 1003.3
20260509211611 87 145 0.0 0.0 0.00 0.00 0.00 65 1003.2
20260509211241 87 145 0.0 0.0 0.00 0.00 0.00 65 1003.2
20260509210635 87 118 0.0 0.0 0.00 0.00 0.00 65 1003.3
20260509210349 87 117 0.0 0.0 0.00 0.00 0.00 66 1003.4
20260509210241 87 117 0.0 0.0 0.00 0.00 0.00 66 1003.4
20260509205634 88 350 0.0 0.0 0.00 0.00 0.00 67 1003.5
20260509205146 88 350 0.0 0.0 0.00 0.00 0.00 68 1003.6
20260509204633 88 0 0.0 0.0 0.00 0.00 0.00 68 1003.7
20260509204132 88 0 0.0 0.0 0.00 0.00 0.00 66 1003.8
20260509203635 89 0 0.0 0.0 0.00 0.00 0.00 64 1003.8
20260509203134 89 0 0.0 0.0 0.00 0.00 0.00 65 1003.9
20260509202633 89 255 0.0 0.0 0.00 0.00 0.00 65 1003.9
20260509202131 89 257 0.0 0.0 0.00 0.00 0.00 65 1003.9
20260509201635 89 157 0.0 0.0 0.00 0.00 0.00 63 1004.0
20260509201132 89 16 0.0 0.0 0.00 0.00 0.00 63 1004.2
20260509200634 89 268 0.0 0.0 0.00 0.00 0.00 68 1004.1
20260509200130 88 268 0.0 0.0 0.00 0.00 0.00 66 1004.2
20260509195634 88 231 0.0 0.0 0.00 0.00 0.00 65 1004.3
20260509195131 89 233 0.0 0.0 0.00 0.00 0.00 66 1004.3
20260509194629 89 240 0.0 0.0 0.00 0.00 0.00 67 1004.3
20260509194127 88 231 0.0 0.0 0.00 0.00 0.00 66 1004.4
20260509193854 88 230 0.0 0.0 0.00 0.00 0.00 68 1004.5
20260509193738 88 230 0.0 0.0 0.00 0.00 0.00 68 1004.5
20260509193132 88 234 0.0 0.0 0.00 0.00 0.00 67 1004.6
20260509192638 89 234 0.0 0.0 0.00 0.00 0.00 64 1004.6
20260509192129 89 234 0.0 0.0 0.00 0.00 0.00 64 1004.7
20260509191632 89 217 0.0 0.0 0.00 0.00 0.00 66 1004.8
20260509191130 89 214 0.0 0.0 0.00 0.00 0.00 66 1004.8
20260509190635 89 283 0.0 0.0 0.00 0.00 0.00 65 1004.7
20260509190143 89 302 0.0 0.0 0.00 0.00 0.00 68 1004.7
20260509185626 89 302 0.0 0.0 0.00 0.00 0.00 67 1004.9
20260509185126 88 302 0.0 0.0 0.00 0.00 0.00 68 1004.9
20260509184632 88 300 0.0 0.0 0.00 0.00 0.00 69 1005.0
20260509184132 88 305 0.0 0.0 0.00 0.00 0.00 69 1005.2
20260509183630 87 303 0.0 0.0 0.00 0.00 0.00 71 1005.2
20260509183349 87 303 0.0 0.0 0.00 0.00 0.00 72 1005.2
20260509183236 87 303 0.0 0.0 0.00 0.00 0.00 72 1005.2
20260509182626 86 333 0.0 0.0 0.00 0.00 0.00 71 1005.3
20260509182135 86 337 0.0 0.0 0.00 0.00 0.00 72 1005.3
20260509182124 86 338 0.0 0.0 0.00 0.00 0.00 72 1005.3
20260509181643 86 338 0.0 0.0 0.00 0.00 0.00 73 1005.4
20260509181628 86 338 0.0 0.0 0.00 0.00 0.00 73 1005.5
20260509181124 85 233 0.0 0.0 0.00 0.00 0.00 74 1005.5
20260509180641 85 233 0.0 0.0 0.00 0.00 0.00 73 1005.5
20260509180627 85 233 0.0 0.0 0.00 0.00 0.00 73 1005.6
20260509180129 85 226 0.0 0.0 0.00 0.00 0.00 74 1005.6
20260509175859 85 216 0.0 0.0 0.00 0.00 0.00 74 1005.7
20260509175738 85 216 0.0 0.0 0.00 0.00 0.00 74 1005.7
20260509175129 85 255 0.0 0.0 0.00 0.00 0.00 75 1005.9
20260509174630 85 140 0.0 0.0 0.00 0.00 0.00 77 1006.0
20260509174134 85 138 0.0 0.0 0.00 0.00 0.00 76 1005.9
20260509173852 85 219 0.0 0.0 0.00 0.00 0.00 78 1006.0
20260509173740 85 219 0.0 0.0 0.00 0.00 0.00 78 1006.0
20260509173129 0 0.0 0.0 0.00 0.00 0.00 1005.9
20260509172850 84 180 0.0 0.0 0.00 0.00 0.00 76 1005.8
20260509172738 84 180 0.0 0.0 0.00 0.00 0.00 76 1005.8
20260509172127 84 161 0.0 0.0 0.00 0.00 0.00 77 1005.7
20260509171628 84 179 0.0 0.0 0.00 0.00 0.00 77 1005.7
20260509171129 84 175 0.0 0.0 0.00 0.00 0.00 78 1005.7
20260509170629 83 196 0.0 0.0 0.00 0.00 0.00 80 1005.7
20260509170127 83 172 0.0 3.0 0.00 0.00 0.00 81 1005.8
20260509165627 82 172 1.0 3.0 0.00 0.00 0.00 83 1005.8
20260509165127 81 182 0.0 0.0 0.00 0.00 0.00 83 1005.8
20260509164627 81 182 0.0 0.0 0.00 0.00 0.00 83 1005.8
20260509164127 81 182 0.0 0.0 0.00 0.00 0.00 83 1005.9
20260509163628 80 182 0.0 0.0 0.00 0.00 0.00 83 1006.0
20260509163353 80 182 0.0 1.0 0.00 0.00 0.00 84 1005.8
20260509163233 80 182 0.0 1.0 0.00 0.00 0.00 84 1005.8
20260509162626 80 203 0.0 1.0 0.00 0.00 0.00 83 1005.9
20260509162126 80 221 0.0 0.0 0.00 0.00 0.00 84 1005.9
20260509161626 80 164 0.0 0.0 0.00 0.00 0.00 84 1006.1
20260509161125 79 159 0.0 0.0 0.00 0.00 0.00 83 1006.1
20260509160627 79 159 0.0 0.0 0.00 0.00 0.00 83 1006.0
20260509160126 79 159 0.0 0.0 0.00 0.00 0.00 82 1006.1
20260509155627 79 176 0.0 0.0 0.00 0.00 0.00 81 1006.2
20260509155126 78 176 0.0 0.0 0.00 0.00 0.00 80 1006.3
20260509154625 78 175 0.0 0.0 0.00 0.00 0.00 78 1006.3
20260509154126 78 175 0.0 0.0 0.00 0.00 0.00 79 1006.4
20260509153626 78 175 0.0 0.0 0.00 0.00 0.00 77 1006.3
20260509153123 78 175 0.0 0.0 0.00 0.00 0.00 75 1006.4
20260509152849 78 175 0.0 0.0 0.00 0.00 0.00 72 1006.5
20260509152735 78 175 0.0 0.0 0.00 0.00 0.00 72 1006.5
20260509152125 77 175 0.0 0.0 0.00 0.00 0.00 69 1006.4
20260509151626 77 176 0.0 0.0 0.00 0.00 0.00 66 1006.3
20260509151123 77 176 0.0 0.0 0.00 0.00 0.00 65 1006.3
20260509150625 77 175 0.0 0.0 0.00 0.00 0.00 61 1006.3
20260509150123 77 175 0.0 0.0 0.00 0.00 0.00 60 1006.3
20260509145846 76 175 0.0 0.0 0.00 0.00 0.00 58 1006.1
20260509145734 76 175 0.0 0.0 0.00 0.00 0.00 58 1006.1
20260509145123 76 175 0.0 0.0 0.00 0.00 0.00 54 1006.0